QTR8062 VHHH-ZHCC

Flight info

Callsign QTR8062
Flight time 2h 16m
Altitude 36100
Route BEKOL A461 YIN/K0893S1070 A461 BUBDA/K0887S1100 W56 REBIS/K0887S1070 W56 VANPI/K0885S1130 W56 IGMIG IGM9U
Aircraft B77L/H-SDE1E2E3FGHIJ2J3J4J5M1RWXY/LB1D1

Departure

Time 2026-04-25 13:10
Airport Hong Kong International Airport (VHHH)

Arrival

Time 2026-04-25 15:27
Airport Zhengzhou Xinzheng International Airport (ZHCC)
Time Latitude Longitude Altitude Speed Heading
2026-04-25 12:33 22.29898 113.92206 41 ft 0 kts 161°
2026-04-25 13:00 22.29899 113.92206 41 ft 2 kts 161°
2026-04-25 13:00 22.29931 113.92194 39 ft 4 kts 161°
2026-04-25 13:00 22.29954 113.92185 39 ft 4 kts 164°
2026-04-25 13:01 22.29979 113.92183 38 ft 4 kts 203°
2026-04-25 13:01 22.29998 113.92200 38 ft 4 kts 243°
2026-04-25 13:01 22.30007 113.92227 40 ft 4 kts 257°
2026-04-25 13:01 22.30013 113.92255 41 ft 4 kts 253°
2026-04-25 13:02 22.30015 113.92262 41 ft 1 kts 250°
2026-04-25 13:04 22.30014 113.92259 41 ft 3 kts 250°
2026-04-25 13:04 22.29986 113.92174 41 ft 16 kts 251°
2026-04-25 13:04 22.30013 113.92077 39 ft 15 kts 329°
2026-04-25 13:05 22.30110 113.92036 41 ft 15 kts 329°
2026-04-25 13:05 22.30126 113.91931 41 ft 15 kts 254°
2026-04-25 13:05 22.30092 113.91824 41 ft 15 kts 251°
2026-04-25 13:05 22.30057 113.91716 40 ft 15 kts 251°
2026-04-25 13:06 22.30024 113.91608 41 ft 15 kts 251°
2026-04-25 13:06 22.29990 113.91500 41 ft 15 kts 250°
2026-04-25 13:06 22.29954 113.91392 42 ft 16 kts 250°
2026-04-25 13:06 22.29910 113.91260 42 ft 21 kts 250°
2026-04-25 13:07 22.29855 113.91087 40 ft 27 kts 251°
2026-04-25 13:07 22.29787 113.90876 41 ft 32 kts 251°
2026-04-25 13:07 22.29708 113.90631 41 ft 35 kts 250°
2026-04-25 13:07 22.29641 113.90422 40 ft 27 kts 251°
2026-04-25 13:08 22.29579 113.90233 40 ft 25 kts 251°
2026-04-25 13:08 22.29533 113.90088 40 ft 18 kts 250°
2026-04-25 13:08 22.29494 113.89967 41 ft 14 kts 253°
2026-04-25 13:08 22.29503 113.89876 38 ft 12 kts 302°
2026-04-25 13:09 22.29578 113.89841 42 ft 12 kts
2026-04-25 13:09 22.29646 113.89885 41 ft 9 kts 58°
2026-04-25 13:09 22.29669 113.89950 41 ft 10 kts 71°
2026-04-25 13:09 22.29736 113.90164 39 ft 63 kts 70°
2026-04-25 13:10 22.29868 113.90573 39 ft 110 kts 71°
2026-04-25 13:10 22.30310 113.91962 177 ft 166 kts 72°
2026-04-25 13:10 22.30693 113.93122 823 ft 166 kts 71°
2026-04-25 13:10 22.31097 113.94343 1297 ft 182 kts 72°
2026-04-25 13:11 22.31520 113.95664 1888 ft 187 kts 72°
2026-04-25 13:11 22.31949 113.97007 2458 ft 194 kts 71°
2026-04-25 13:11 22.32425 113.98485 2691 ft 222 kts 71°
2026-04-25 13:11 22.32956 114.00147 3033 ft 243 kts 71°
2026-04-25 13:12 22.33518 114.01902 3718 ft 251 kts 71°
2026-04-25 13:12 22.33856 114.03778 4249 ft 262 kts 92°
2026-04-25 13:12 22.33472 114.05727 4893 ft 270 kts 112°
2026-04-25 13:12 22.32895 114.06930 5302 ft 275 kts 122°
2026-04-25 13:13 22.31438 114.09205 6390 ft 280 kts 126°
2026-04-25 13:13 22.30286 114.10912 7113 ft 285 kts 126°
2026-04-25 13:13 22.29096 114.12656 7827 ft 290 kts 126°
2026-04-25 13:13 22.27885 114.14417 8595 ft 294 kts 126°
2026-04-25 13:14 22.26653 114.16195 9370 ft 298 kts 126°
2026-04-25 13:14 22.25444 114.18015 10062 ft 300 kts 117°
2026-04-25 13:14 22.24813 114.20171 10600 ft 305 kts 95°
2026-04-25 13:14 22.24721 114.22474 11295 ft 309 kts 88°
2026-04-25 13:15 22.24742 114.24803 12128 ft 311 kts 87°
2026-04-25 13:15 22.24900 114.27130 12862 ft 313 kts 73°
2026-04-25 13:15 22.25823 114.29245 13537 ft 313 kts 47°
2026-04-25 13:15 22.27422 114.30802 14334 ft 310 kts 31°
2026-04-25 13:16 22.29243 114.32067 15038 ft 314 kts 28°
2026-04-25 13:16 22.31139 114.33289 15705 ft 319 kts 26°
2026-04-25 13:16 22.33223 114.34115 16036 ft 327 kts
2026-04-25 13:16 22.35503 114.33801 16200 ft 342 kts 335°
2026-04-25 13:17 22.37498 114.32311 16375 ft 360 kts 310°
2026-04-25 13:17 22.38839 114.29969 16519 ft 377 kts 296°
2026-04-25 13:17 22.40071 114.27400 16916 ft 390 kts 300°
2026-04-25 13:17 22.41645 114.24971 17461 ft 399 kts 309°
2026-04-25 13:18 22.43562 114.22779 18215 ft 403 kts 315°
2026-04-25 13:18 22.45680 114.20773 18947 ft 406 kts 318°
2026-04-25 13:18 22.47889 114.18854 19551 ft 410 kts 319°
2026-04-25 13:18 22.50135 114.16926 19717 ft 415 kts 319°
2026-04-25 13:19 22.52390 114.14985 19713 ft 414 kts 320°
2026-04-25 13:19 22.54762 114.13217 19747 ft 416 kts 326°
2026-04-25 13:19 22.57311 114.11695 20286 ft 422 kts 331°
2026-04-25 13:19 22.58169 114.11254 20511 ft 422 kts 332°
2026-04-25 13:20 22.62625 114.09001 21592 ft 427 kts 332°
2026-04-25 13:20 22.65365 114.07617 22181 ft 431 kts 332°
2026-04-25 13:20 22.68095 114.06231 22756 ft 435 kts 332°
2026-04-25 13:20 22.70848 114.04826 23314 ft 439 kts 331°
2026-04-25 13:21 22.73621 114.03407 23822 ft 443 kts 331°
2026-04-25 13:21 22.76417 114.01973 24311 ft 446 kts 331°
2026-04-25 13:21 22.79226 114.00531 24805 ft 448 kts 331°
2026-04-25 13:21 22.82051 113.99080 25336 ft 450 kts 331°
2026-04-25 13:22 22.84855 113.97640 25829 ft 453 kts 331°
2026-04-25 13:22 22.87710 113.96172 26326 ft 456 kts 331°
2026-04-25 13:22 22.90582 113.94695 26834 ft 458 kts 331°
2026-04-25 13:23 22.96403 113.91669 27797 ft 464 kts 330°
2026-04-25 13:23 22.98336 113.90661 28108 ft 466 kts 330°
2026-04-25 13:23 23.02213 113.88640 28725 ft 469 kts 331°
2026-04-25 13:23 23.04206 113.87603 29025 ft 471 kts 331°
2026-04-25 13:24 23.07163 113.86062 29459 ft 473 kts 331°
2026-04-25 13:24 23.11180 113.84152 30044 ft 478 kts 336°
2026-04-25 13:24 23.14304 113.82918 30605 ft 475 kts 336°
2026-04-25 13:24 23.17399 113.81722 31193 ft 472 kts 336°
2026-04-25 13:25 23.20490 113.80532 31767 ft 468 kts 336°
2026-04-25 13:25 23.22557 113.79734 32140 ft 467 kts 336°
2026-04-25 13:25 23.25606 113.78548 32653 ft 465 kts 335°
2026-04-25 13:25 23.28647 113.77358 33110 ft 464 kts 335°
2026-04-25 13:26 23.31675 113.76167 33566 ft 462 kts 335°
2026-04-25 13:26 23.34696 113.74977 34040 ft 461 kts 335°
2026-04-25 13:26 23.37703 113.73790 34435 ft 459 kts 334°
2026-04-25 13:26 23.40701 113.72607 34816 ft 458 kts 334°
2026-04-25 13:27 23.43692 113.71425 35137 ft 456 kts 334°
2026-04-25 13:27 23.49674 113.69059 35114 ft 457 kts 334°
2026-04-25 13:28 23.55609 113.66712 35111 ft 456 kts 334°
2026-04-25 13:28 23.61573 113.64352 35124 ft 456 kts 334°
2026-04-25 13:29 23.67535 113.61990 35128 ft 455 kts 334°
2026-04-25 13:29 23.73492 113.59626 35125 ft 456 kts 334°
2026-04-25 13:30 23.82436 113.56074 35135 ft 456 kts 334°
2026-04-25 13:31 23.91392 113.52513 35133 ft 457 kts 334°
2026-04-25 13:31 23.97366 113.50134 35138 ft 457 kts 334°
2026-04-25 13:32 24.03335 113.47756 35125 ft 456 kts 334°
2026-04-25 13:32 24.09289 113.45381 35129 ft 455 kts 333°
2026-04-25 13:33 24.15253 113.43061 35135 ft 457 kts 337°
2026-04-25 13:33 24.21566 113.41780 35137 ft 466 kts 347°
2026-04-25 13:34 24.28115 113.41701 35127 ft 474 kts 355°
2026-04-25 13:34 24.34688 113.41999 35133 ft 472 kts 354°
2026-04-25 13:35 24.41238 113.42184 35142 ft 470 kts 354°
2026-04-25 13:35 24.47773 113.42358 35139 ft 469 kts 354°
2026-04-25 13:36 24.54298 113.42547 35149 ft 469 kts 354°
2026-04-25 13:36 24.60813 113.42737 35148 ft 468 kts 354°
2026-04-25 13:37 24.67278 113.42925 35145 ft 467 kts 353°
2026-04-25 13:37 24.73774 113.43111 35142 ft 466 kts 353°
2026-04-25 13:38 24.80260 113.43298 35144 ft 466 kts 353°
2026-04-25 13:38 24.86739 113.43485 35146 ft 465 kts 353°
2026-04-25 13:39 24.93201 113.43673 35145 ft 464 kts 353°
2026-04-25 13:39 24.99644 113.43860 35149 ft 462 kts 353°
2026-04-25 13:40 25.06064 113.44045 35158 ft 461 kts 353°
2026-04-25 13:40 25.12472 113.44231 35159 ft 460 kts 353°
2026-04-25 13:41 25.18871 113.44417 35166 ft 459 kts 353°
2026-04-25 13:41 25.25248 113.44602 35159 ft 458 kts 353°
2026-04-25 13:42 25.31600 113.44791 35196 ft 456 kts 353°
2026-04-25 13:42 25.37973 113.44971 35194 ft 459 kts 353°
2026-04-25 13:43 25.44389 113.45155 35162 ft 461 kts 353°
2026-04-25 13:43 25.50806 113.45343 35186 ft 462 kts 353°
2026-04-25 13:44 25.57236 113.45532 35179 ft 462 kts 353°
2026-04-25 13:44 25.63666 113.45722 35164 ft 461 kts 352°
2026-04-25 13:45 25.70074 113.45910 35165 ft 460 kts 352°
2026-04-25 13:45 25.76464 113.46098 35165 ft 458 kts 352°
2026-04-25 13:46 25.82791 113.46282 35163 ft 457 kts 352°
2026-04-25 13:46 25.89125 113.46361 35172 ft 453 kts 349°
2026-04-25 13:47 25.90800 113.46310 35172 ft 452 kts 349°
2026-04-25 13:47 25.96967 113.46053 35166 ft 450 kts 348°
2026-04-25 13:48 26.03282 113.45768 35152 ft 456 kts 349°
2026-04-25 13:48 26.09630 113.45513 35152 ft 457 kts 349°
2026-04-25 13:49 26.15978 113.45272 35169 ft 456 kts 349°
2026-04-25 13:49 26.22312 113.45030 35150 ft 455 kts 349°
2026-04-25 13:50 26.28619 113.44787 35161 ft 452 kts 349°
2026-04-25 13:50 26.34904 113.44544 35156 ft 450 kts 349°
2026-04-25 13:51 26.41159 113.44299 35143 ft 450 kts 349°
2026-04-25 13:51 26.47407 113.44056 35137 ft 449 kts 349°
2026-04-25 13:52 26.53642 113.43814 35143 ft 448 kts 349°
2026-04-25 13:52 26.59832 113.43579 35138 ft 448 kts 349°
2026-04-25 13:53 26.66060 113.43344 35132 ft 448 kts 350°
2026-04-25 13:53 26.72288 113.43109 35131 ft 447 kts 350°
2026-04-25 13:54 26.78507 113.42873 35134 ft 447 kts 350°
2026-04-25 13:54 26.84723 113.42636 35129 ft 447 kts 350°
2026-04-25 13:55 26.90931 113.42400 35126 ft 446 kts 351°
2026-04-25 13:55 26.97133 113.42164 35119 ft 445 kts 351°
2026-04-25 13:56 27.03313 113.41929 35118 ft 444 kts 351°
2026-04-25 13:56 27.09478 113.41694 35117 ft 442 kts 351°
2026-04-25 13:57 27.15624 113.41459 35117 ft 441 kts 351°
2026-04-25 13:57 27.21710 113.41225 35115 ft 440 kts 351°
2026-04-25 13:58 27.27820 113.40991 35115 ft 439 kts 351°
2026-04-25 13:58 27.33914 113.40766 35115 ft 439 kts 352°
2026-04-25 13:59 27.40032 113.40847 35112 ft 440 kts 355°
2026-04-25 13:59 27.46162 113.41027 35114 ft 440 kts 355°
2026-04-25 14:00 27.51246 113.41141 35107 ft 439 kts 354°
2026-04-25 14:00 27.58387 113.41271 35106 ft 439 kts 355°
2026-04-25 14:01 27.64484 113.41383 35105 ft 438 kts 355°
2026-04-25 14:01 27.70587 113.41798 35096 ft 440 kts 358°
2026-04-25 14:02 27.76683 113.42367 35108 ft 439 kts 358°
2026-04-25 14:02 27.82762 113.42895 35101 ft 438 kts 358°
2026-04-25 14:03 27.88839 113.43440 35097 ft 437 kts 359°
2026-04-25 14:03 27.94909 113.43982 35105 ft 437 kts 358°
2026-04-25 14:04 28.00925 113.44502 35098 ft 437 kts 359°
2026-04-25 14:04 28.06979 113.45079 35092 ft 436 kts 359°
2026-04-25 14:05 28.13029 113.45589 35088 ft 434 kts 358°
2026-04-25 14:05 28.19046 113.45952 35108 ft 433 kts 358°
2026-04-25 14:06 28.25069 113.46359 35096 ft 434 kts 358°
2026-04-25 14:06 28.31102 113.46788 35103 ft 435 kts 358°
2026-04-25 14:07 28.37137 113.47213 35097 ft 435 kts 359°
2026-04-25 14:07 28.43175 113.47642 35098 ft 434 kts 359°
2026-04-25 14:08 28.49204 113.48083 35101 ft 434 kts 359°
2026-04-25 14:08 28.55227 113.48526 35102 ft 434 kts 359°
2026-04-25 14:09 28.61244 113.48966 35099 ft 433 kts 359°
2026-04-25 14:09 28.67256 113.49407 35093 ft 433 kts 359°
2026-04-25 14:10 28.72250 113.49773 35099 ft 433 kts 359°
2026-04-25 14:10 28.78259 113.50213 35095 ft 433 kts 359°
2026-04-25 14:11 28.84271 113.50641 35091 ft 433 kts 359°
2026-04-25 14:11 28.90280 113.51068 35093 ft 433 kts 359°
2026-04-25 14:12 28.96289 113.51496 35091 ft 432 kts 360°
2026-04-25 14:12 29.02295 113.51926 35094 ft 433 kts 360°
2026-04-25 14:13 29.08305 113.52356 35095 ft 433 kts 360°
2026-04-25 14:13 29.14315 113.52787 35081 ft 433 kts
2026-04-25 14:14 29.20314 113.53218 35099 ft 432 kts
2026-04-25 14:14 29.26309 113.53656 35080 ft 431 kts
2026-04-25 14:15 29.32291 113.54121 35085 ft 431 kts
2026-04-25 14:15 29.38265 113.54655 35078 ft 431 kts
2026-04-25 14:16 29.44251 113.55190 35089 ft 431 kts
2026-04-25 14:16 29.50238 113.55719 35092 ft 431 kts
2026-04-25 14:17 29.56223 113.56255 35089 ft 432 kts
2026-04-25 14:17 29.62212 113.56772 35088 ft 431 kts
2026-04-25 14:18 29.68163 113.57274 35080 ft 431 kts
2026-04-25 14:18 29.74186 113.57804 35080 ft 431 kts
2026-04-25 14:19 29.80128 113.58331 35077 ft 431 kts
2026-04-25 14:19 29.86100 113.58858 35081 ft 430 kts
2026-04-25 14:20 29.92052 113.59577 35082 ft 432 kts
2026-04-25 14:20 29.97884 113.61335 35084 ft 436 kts 14°
2026-04-25 14:21 30.03527 113.63986 35084 ft 439 kts 19°
2026-04-25 14:21 30.09118 113.66826 35080 ft 439 kts 19°
2026-04-25 14:22 30.14703 113.69649 35081 ft 438 kts 19°
2026-04-25 14:22 30.20294 113.72451 35078 ft 438 kts 18°
2026-04-25 14:23 30.25888 113.75248 35079 ft 438 kts 18°
2026-04-25 14:23 30.31485 113.78049 35080 ft 438 kts 18°
2026-04-25 14:24 30.37072 113.80849 35079 ft 437 kts 18°
2026-04-25 14:24 30.42655 113.83651 35081 ft 437 kts 18°
2026-04-25 14:25 30.48238 113.86458 35080 ft 437 kts 18°
2026-04-25 14:25 30.53820 113.89267 35081 ft 437 kts 18°
2026-04-25 14:26 30.59411 113.92084 35080 ft 437 kts 19°
2026-04-25 14:26 30.64990 113.94890 35086 ft 437 kts 18°
2026-04-25 14:27 30.70600 113.97598 35090 ft 437 kts 18°
2026-04-25 14:27 30.76106 114.00636 35095 ft 438 kts 21°
2026-04-25 14:28 30.81602 114.03705 35094 ft 438 kts 20°
2026-04-25 14:28 30.87123 114.06684 35095 ft 437 kts 20°
2026-04-25 14:29 30.92609 114.09651 35094 ft 437 kts 20°
2026-04-25 14:29 30.98126 114.12652 35093 ft 437 kts 20°
2026-04-25 14:30 31.03637 114.15653 35091 ft 437 kts 20°
2026-04-25 14:30 31.11902 114.20149 35090 ft 437 kts 20°
2026-04-25 14:31 31.17414 114.23151 35096 ft 437 kts 20°
2026-04-25 14:31 31.22935 114.26163 35083 ft 438 kts 20°
2026-04-25 14:32 31.28451 114.29178 35097 ft 438 kts 20°
2026-04-25 14:32 31.34050 114.31875 35095 ft 432 kts 12°
2026-04-25 14:33 31.39904 114.33284 35098 ft 428 kts
2026-04-25 14:33 31.45826 114.33590 35097 ft 425 kts 359°
2026-04-25 14:34 31.51660 114.33702 35092 ft 426 kts 359°
2026-04-25 14:34 31.57591 114.33853 35098 ft 426 kts 359°
2026-04-25 14:35 31.63519 114.34029 35096 ft 427 kts 359°
2026-04-25 14:35 31.69459 114.34209 35096 ft 427 kts 359°
2026-04-25 14:36 31.75370 114.34372 35086 ft 428 kts 359°
2026-04-25 14:36 31.81322 114.34495 35093 ft 428 kts 359°
2026-04-25 14:37 31.87273 114.34663 35095 ft 428 kts 359°
2026-04-25 14:37 31.93233 114.34861 35083 ft 428 kts 359°
2026-04-25 14:38 31.99178 114.35056 35088 ft 427 kts 359°
2026-04-25 14:38 32.05120 114.35245 35087 ft 427 kts 359°
2026-04-25 14:39 32.11037 114.35433 35088 ft 426 kts 359°
2026-04-25 14:39 32.16954 114.35621 35085 ft 426 kts 359°
2026-04-25 14:40 32.22876 114.35810 35083 ft 426 kts 359°
2026-04-25 14:40 32.28802 114.36078 35085 ft 426 kts
2026-04-25 14:41 32.34724 114.36640 35084 ft 427 kts
2026-04-25 14:41 32.40644 114.37219 35085 ft 426 kts
2026-04-25 14:42 32.44561 114.37580 35085 ft 426 kts
2026-04-25 14:42 32.48165 114.37905 35064 ft 417 kts
2026-04-25 14:43 32.53989 114.38423 35092 ft 426 kts
2026-04-25 14:43 32.59954 114.38955 35089 ft 431 kts
2026-04-25 14:44 32.65936 114.39493 35086 ft 431 kts
2026-04-25 14:44 32.71915 114.40050 35083 ft 430 kts
2026-04-25 14:45 32.77870 114.40611 35083 ft 428 kts
2026-04-25 14:45 32.83794 114.41167 35082 ft 427 kts
2026-04-25 14:46 32.89708 114.41723 35088 ft 425 kts
2026-04-25 14:46 32.95600 114.42276 35085 ft 424 kts
2026-04-25 14:47 32.99499 114.42643 35087 ft 424 kts
2026-04-25 14:47 33.07366 114.43383 35088 ft 424 kts
2026-04-25 14:48 33.13249 114.43938 35086 ft 424 kts
2026-04-25 14:48 33.19139 114.44495 35088 ft 425 kts
2026-04-25 14:49 33.22063 114.44473 35079 ft 418 kts 349°
2026-04-25 14:49 33.24831 114.43453 35102 ft 418 kts 334°
2026-04-25 14:49 33.29533 114.39343 35101 ft 424 kts 318°
2026-04-25 14:50 33.31455 114.36709 35081 ft 430 kts 307°
2026-04-25 14:50 33.32714 114.33434 35098 ft 439 kts 294°
2026-04-25 14:50 33.34951 114.26722 35077 ft 425 kts 304°
2026-04-25 14:51 33.37344 114.20156 35078 ft 429 kts 303°
2026-04-25 14:51 33.39000 114.17251 34773 ft 418 kts 316°
2026-04-25 14:51 33.41201 114.15029 34183 ft 411 kts 329°
2026-04-25 14:52 33.43743 114.13538 33555 ft 406 kts 342°
2026-04-25 14:52 33.46543 114.13136 32896 ft 408 kts
2026-04-25 14:52 33.49359 114.13561 32329 ft 407 kts
2026-04-25 14:52 33.50303 114.13723 32126 ft 406 kts
2026-04-25 14:53 33.54937 114.13948 31213 ft 398 kts 354°
2026-04-25 14:53 33.56759 114.13736 30859 ft 395 kts 350°
2026-04-25 14:53 33.59458 114.13183 30320 ft 392 kts 347°
2026-04-25 14:53 33.62117 114.12457 29736 ft 391 kts 345°
2026-04-25 14:54 33.64746 114.11653 29124 ft 389 kts 344°
2026-04-25 14:54 33.67347 114.10826 28568 ft 386 kts 344°
2026-04-25 14:54 33.70777 114.09730 27831 ft 383 kts 344°
2026-04-25 14:54 33.72512 114.09178 27471 ft 382 kts 344°
2026-04-25 14:55 33.75074 114.08369 26935 ft 380 kts 344°
2026-04-25 14:55 33.77625 114.07567 26413 ft 378 kts 344°
2026-04-25 14:55 33.80983 114.06514 25729 ft 376 kts 344°
2026-04-25 14:55 33.83504 114.05723 25221 ft 374 kts 344°
2026-04-25 14:56 33.85208 114.05188 24877 ft 373 kts 344°
2026-04-25 14:56 33.87716 114.04401 24361 ft 372 kts 344°
2026-04-25 14:56 33.90220 114.03617 23848 ft 372 kts 344°
2026-04-25 14:56 33.92720 114.02835 23289 ft 371 kts 344°
2026-04-25 14:57 33.95215 114.02054 22747 ft 369 kts 344°
2026-04-25 14:57 33.97694 114.01278 22221 ft 367 kts 344°
2026-04-25 14:57 34.00159 114.00506 21733 ft 365 kts 344°
2026-04-25 14:57 34.02610 113.99737 21244 ft 363 kts 344°
2026-04-25 14:58 34.05045 113.98973 20768 ft 361 kts 344°
2026-04-25 14:58 34.07472 113.98211 20292 ft 360 kts 344°
2026-04-25 14:58 34.09884 113.97447 19809 ft 356 kts 342°
2026-04-25 14:58 34.12094 113.96190 19329 ft 352 kts 323°
2026-04-25 14:59 34.13882 113.94191 18899 ft 351 kts 311°
2026-04-25 14:59 34.15203 113.91761 18431 ft 353 kts 297°
2026-04-25 14:59 34.16159 113.89033 17946 ft 353 kts 294°
2026-04-25 14:59 34.17059 113.86279 17452 ft 352 kts 293°
2026-04-25 15:00 34.17957 113.83531 16976 ft 351 kts 294°
2026-04-25 15:00 34.18865 113.80791 16524 ft 350 kts 294°
2026-04-25 15:00 34.19780 113.78069 16069 ft 349 kts 294°
2026-04-25 15:00 34.20699 113.75358 15617 ft 349 kts 294°
2026-04-25 15:01 34.21623 113.72648 15162 ft 348 kts 294°
2026-04-25 15:01 34.22544 113.69946 14723 ft 348 kts 294°
2026-04-25 15:01 34.23467 113.67235 14274 ft 348 kts 294°
2026-04-25 15:01 34.24389 113.64530 13819 ft 348 kts 294°
2026-04-25 15:02 34.25314 113.61819 13325 ft 349 kts 294°
2026-04-25 15:02 34.26237 113.59109 12842 ft 348 kts 294°
2026-04-25 15:02 34.27155 113.56411 12391 ft 347 kts 293°
2026-04-25 15:02 34.28074 113.53711 12020 ft 345 kts 293°
2026-04-25 15:03 34.28971 113.51075 11876 ft 335 kts 293°
2026-04-25 15:03 34.29845 113.48505 11736 ft 326 kts 293°
2026-04-25 15:03 34.30697 113.45998 11581 ft 317 kts 293°
2026-04-25 15:03 34.31525 113.43569 11394 ft 303 kts 293°
2026-04-25 15:04 34.32294 113.41321 11265 ft 276 kts 293°
2026-04-25 15:04 34.33209 113.39429 11151 ft 248 kts 316°
2026-04-25 15:04 34.34623 113.38315 11127 ft 250 kts 338°
2026-04-25 15:04 34.36373 113.37787 10822 ft 266 kts 353°
2026-04-25 15:05 34.38209 113.37990 10494 ft 268 kts 18°
2026-04-25 15:05 34.39910 113.38846 10203 ft 263 kts 21°
2026-04-25 15:05 34.41585 113.39699 9884 ft 260 kts 20°
2026-04-25 15:06 34.44917 113.41350 9238 ft 262 kts 20°
2026-04-25 15:06 34.46606 113.42186 8922 ft 268 kts 20°
2026-04-25 15:06 34.48334 113.43042 8595 ft 269 kts 20°
2026-04-25 15:06 34.50037 113.43885 8421 ft 258 kts 20°
2026-04-25 15:07 34.51663 113.44689 8276 ft 247 kts 20°
2026-04-25 15:07 34.53238 113.45467 7971 ft 243 kts 20°
2026-04-25 15:07 34.54786 113.46233 7674 ft 238 kts 20°
2026-04-25 15:07 34.56300 113.46981 7392 ft 232 kts 20°
2026-04-25 15:08 34.57788 113.47717 7114 ft 231 kts 20°
2026-04-25 15:08 34.59280 113.48456 6860 ft 232 kts 20°
2026-04-25 15:08 34.60782 113.49199 6565 ft 235 kts 20°
2026-04-25 15:08 34.62306 113.49953 6268 ft 238 kts 20°
2026-04-25 15:09 34.63697 113.51004 5906 ft 237 kts 51°
2026-04-25 15:09 34.64376 113.52784 5643 ft 235 kts 85°
2026-04-25 15:09 34.63408 113.56403 5135 ft 226 kts 117°
2026-04-25 15:10 34.62744 113.58143 4899 ft 228 kts 114°
2026-04-25 15:10 34.62129 113.59919 4629 ft 228 kts 114°
2026-04-25 15:10 34.60951 113.63400 4051 ft 219 kts 115°
2026-04-25 15:11 34.60381 113.65085 3771 ft 213 kts 115°
2026-04-25 15:11 34.59824 113.66734 3497 ft 208 kts 116°
2026-04-25 15:11 34.59304 113.68307 3464 ft 202 kts 115°
2026-04-25 15:12 34.58261 113.71886 5230 ft 252 kts 110°
2026-04-25 15:12 34.57713 113.73894 5743 ft 253 kts 109°
2026-04-25 15:12 34.57197 113.75935 6138 ft 253 kts 107°
2026-04-25 15:12 34.57038 113.76630 6260 ft 255 kts 105°
2026-04-25 15:13 34.56362 113.79743 6379 ft 261 kts 105°
2026-04-25 15:13 34.55203 113.83946 6893 ft 262 kts 112°
2026-04-25 15:13 34.54500 113.86001 6891 ft 264 kts 113°
2026-04-25 15:14 34.53795 113.88066 6893 ft 265 kts 113°
2026-04-25 15:14 34.53251 113.90176 6885 ft 262 kts 92°
2026-04-25 15:14 34.53682 113.92276 6887 ft 260 kts 55°
2026-04-25 15:14 34.55034 113.93655 6618 ft 257 kts 18°
2026-04-25 15:15 34.56776 113.93773 6187 ft 253 kts 340°
2026-04-25 15:15 34.58240 113.92646 5682 ft 250 kts 313°
2026-04-25 15:15 34.59441 113.91109 5221 ft 251 kts 309°
2026-04-25 15:15 34.60412 113.89367 4766 ft 250 kts 296°
2026-04-25 15:16 34.61077 113.87444 4380 ft 246 kts 289°
2026-04-25 15:16 34.61746 113.85535 4027 ft 245 kts 294°
2026-04-25 15:16 34.63408 113.81969 3385 ft 240 kts 298°
2026-04-25 15:17 34.64936 113.78315 2918 ft 244 kts 288°
2026-04-25 15:17 34.65573 113.76435 2900 ft 238 kts 288°
2026-04-25 15:17 34.66201 113.74585 2892 ft 236 kts 288°
2026-04-25 15:18 34.66830 113.72737 2907 ft 238 kts 288°
2026-04-25 15:18 34.68072 113.68980 2910 ft 240 kts 288°
2026-04-25 15:18 34.68692 113.67094 2906 ft 240 kts 288°
2026-04-25 15:19 34.69312 113.65213 2904 ft 240 kts 288°
2026-04-25 15:19 34.69522 113.64573 2904 ft 240 kts 288°
2026-04-25 15:19 34.70550 113.61449 2901 ft 239 kts 288°
2026-04-25 15:19 34.71168 113.59568 2898 ft 239 kts 288°
2026-04-25 15:20 34.71724 113.57684 2892 ft 233 kts 275°
2026-04-25 15:20 34.71565 113.55790 2905 ft 226 kts 243°
2026-04-25 15:20 34.70662 113.54286 2904 ft 221 kts 220°
2026-04-25 15:20 34.69390 113.53341 2904 ft 205 kts 204°
2026-04-25 15:21 34.68086 113.52802 2888 ft 199 kts 187°
2026-04-25 15:21 34.66699 113.52907 2918 ft 204 kts 170°
2026-04-25 15:21 34.65339 113.53495 2897 ft 204 kts 161°
2026-04-25 15:21 34.64155 113.54370 2890 ft 209 kts 133°
2026-04-25 15:22 34.63441 113.55956 2923 ft 221 kts 116°
2026-04-25 15:22 34.62864 113.57697 2916 ft 222 kts 116°
2026-04-25 15:22 34.62290 113.59421 2905 ft 218 kts 116°
2026-04-25 15:22 34.61722 113.61117 2898 ft 215 kts 116°
2026-04-25 15:23 34.61157 113.62793 2896 ft 215 kts 117°
2026-04-25 15:23 34.60582 113.64488 2913 ft 218 kts 116°
2026-04-25 15:23 34.60004 113.66198 2911 ft 219 kts 116°
2026-04-25 15:23 34.59428 113.67900 2897 ft 218 kts 116°
2026-04-25 15:24 34.58856 113.69593 2907 ft 215 kts 117°
2026-04-25 15:24 34.58282 113.71285 2743 ft 223 kts 117°
2026-04-25 15:24 34.57687 113.73042 2440 ft 223 kts 117°
2026-04-25 15:24 34.57488 113.73629 2338 ft 222 kts 117°
2026-04-25 15:25 34.56545 113.76422 1853 ft 205 kts 117°
2026-04-25 15:25 34.56051 113.77881 1603 ft 188 kts 118°
2026-04-25 15:25 34.55566 113.79309 1358 ft 171 kts 116°
2026-04-25 15:25 34.55153 113.80557 1146 ft 146 kts 114°
2026-04-25 15:26 34.54793 113.81625 896 ft 132 kts 115°
2026-04-25 15:26 34.54435 113.82670 760 ft 134 kts 114°
2026-04-25 15:26 34.54072 113.83723 622 ft 137 kts 115°
2026-04-25 15:26 34.53713 113.84769 509 ft 129 kts 114°
2026-04-25 15:27 34.53427 113.85609 501 ft 82 kts 112°
2026-04-25 15:27 34.53280 113.86041 501 ft 29 kts 112°
2026-04-25 15:27 34.53212 113.86449 501 ft 30 kts 86°
2026-04-25 15:28 34.53216 113.86499 502 ft 3 kts 85°
2026-04-25 15:28 34.53218 113.86535 503 ft 7 kts 84°
2026-04-25 15:28 34.53224 113.86643 506 ft 15 kts 86°
2026-04-25 15:28 34.53225 113.86660 506 ft 0 kts 86°
2026-04-25 15:29 34.53225 113.86661 506 ft 3 kts 86°
2026-04-25 15:29 34.53275 113.86760 508 ft 18 kts 28°
2026-04-25 15:29 34.53388 113.86816 509 ft 17 kts 21°
2026-04-25 15:30 34.53499 113.86871 509 ft 18 kts 22°
2026-04-25 15:30 34.53615 113.86929 509 ft 18 kts 22°
2026-04-25 15:30 34.53715 113.86972 509 ft 13 kts
2026-04-25 15:30 34.53769 113.86927 509 ft 5 kts 319°
2026-04-25 15:31 34.53801 113.86913 509 ft 6 kts 359°
2026-04-25 15:31 34.53841 113.86926 509 ft 6 kts 19°
2026-04-25 15:31 34.53873 113.86940 509 ft 2 kts 21°
2026-04-25 15:31 34.53878 113.86943 509 ft 0 kts 21°